Volver al catálogo

NOAA 16 DEB

ActivoSSO
NORAD 42333·DEBRIS·🇺🇸 United States

Lanzado Sep 21, 2000 desde Vandenberg Space Force Base

Loading…

Próximos Pases (próximas 24 horas)

TLE

ActualizadoSource: Space-Track

Época: Sep 14, 2026, 14:05 UTC

1 42333U 00055PZ  26257.58704697  .00003177  00000-0  12602-2 0  9994
2 42333  98.9763  28.9775 0013097 325.7297  34.3037 14.29519090542777

Sigue NOAA 16 DEB en tiempo real con AllMySat

Download on the App Store